Time,TemperatureF,DewpointF,PressureIn,WindDirection,WindDirectionDegrees,WindSpeedMPH,WindSpeedGustMPH,Humidity,HourlyPrecipIn,Conditions,Clouds,dailyrainin,SoftwareType,DateUTC
2013-10-16 00:12:00,-999.0,-99.9,-100.00,WSW,258,1.0,2.0,-999,-99.99,,,-99.99,,2013-10-16 07:12:00,
2013-10-16 00:22:00,49.0,-99.9,-100.00,North,9,3.0,4.0,-999,-99.99,,,-99.99,,2013-10-16 07:22:00,
2013-10-16 00:32:00,-999.0,-99.9,-100.00,NNW,343,3.0,4.0,-999,-99.99,,,-99.99,,2013-10-16 07:32:00,
2013-10-16 01:02:00,-999.0,-99.9,-100.00,North,357,4.0,6.0,-999,-99.99,,,-99.99,,2013-10-16 08:02:00,
2013-10-16 01:11:00,-999.0,-99.9,-100.00,NNW,344,6.0,8.0,-999,-99.99,,,-99.99,,2013-10-16 08:11:00,
2013-10-16 01:22:00,49.0,-99.9,-100.00,North,350,6.0,7.0,-999,-99.99,,,-99.99,,2013-10-16 08:22:00,
2013-10-16 01:32:00,-999.0,-99.9,-100.00,NW,326,4.0,5.0,-999,-99.99,,,-99.99,,2013-10-16 08:32:00,
2013-10-16 02:02:00,-999.0,-99.9,-100.00,North,357,4.0,5.0,-999,-99.99,,,-99.99,,2013-10-16 09:02:00,
2013-10-16 02:22:00,-999.0,-99.9,-100.00,North,-999,3.0,4.0,-999,-99.99,,,-99.99,,2013-10-16 09:22:00,
2013-10-16 02:33:00,-999.0,-99.9,-100.00,NW,311,7.0,8.0,-999,-99.99,,,-99.99,,2013-10-16 09:33:00,
2013-10-16 03:03:00,-999.0,-99.9,-100.00,NW,322,6.0,10.0,-999,-99.99,,,-99.99,,2013-10-16 10:03:00,
2013-10-16 03:13:00,49.0,-99.9,-100.00,NNW,345,6.0,9.0,-999,-99.99,,,-99.99,,2013-10-16 10:13:00,
2013-10-16 03:23:00,-999.0,-99.9,-100.00,North,351,7.0,8.0,-999,-99.99,,,-99.99,,2013-10-16 10:23:00,
2013-10-16 03:33:00,-999.0,-99.9,-100.00,North,352,5.0,7.0,-999,-99.99,,,-99.99,,2013-10-16 10:33:00,
2013-10-16 03:42:00,-999.0,-99.9,-100.00,NNW,347,5.0,6.0,-999,-99.99,,,-99.99,,2013-10-16 10:42:00,
2013-10-16 04:03:00,-999.0,-99.9,-100.00,North,353,3.0,5.0,-999,-99.99,,,-99.99,,2013-10-16 11:03:00,
2013-10-16 04:22:00,-999.0,-99.9,-100.00,North,356,3.0,5.0,-999,-99.99,,,-99.99,,2013-10-16 11:22:00,
2013-10-16 04:33:00,-999.0,-99.9,-100.00,North,351,4.0,4.0,-999,-99.99,,,-99.99,,2013-10-16 11:33:00,
2013-10-16 04:43:00,-999.0,-99.9,-100.00,NNE,12,4.0,5.0,-999,-99.99,,,-99.99,,2013-10-16 11:43:00,
2013-10-16 05:02:00,-999.0,-99.9,-100.00,North,2,4.0,6.0,-999,-99.99,,,-99.99,,2013-10-16 12:02:00,
2013-10-16 05:22:00,-999.0,-99.9,-100.00,North,8,4.0,4.0,-999,-99.99,,,-99.99,,2013-10-16 12:22:00,
2013-10-16 05:33:00,-999.0,-99.9,-100.00,NE,35,5.0,6.0,-999,-99.99,,,-99.99,,2013-10-16 12:33:00,
2013-10-16 06:02:00,-999.0,-99.9,-100.00,NNW,345,7.0,10.0,-999,-99.99,,,-99.99,,2013-10-16 13:02:00,
2013-10-16 06:22:00,-999.0,-99.9,-100.00,North,3,5.0,8.0,-999,-99.99,,,-99.99,,2013-10-16 13:22:00,
2013-10-16 06:32:00,-999.0,-99.9,-100.00,NNW,348,6.0,9.0,-999,-99.99,,,-99.99,,2013-10-16 13:32:00,
2013-10-16 07:02:00,-999.0,-99.9,-100.00,NW,316,11.0,13.0,-999,-99.99,,,-99.99,,2013-10-16 14:02:00,
2013-10-16 07:22:00,-999.0,-99.9,-100.00,NNW,328,9.0,11.0,-999,-99.99,,,-99.99,,2013-10-16 14:22:00,
2013-10-16 07:32:00,-999.0,-99.9,-100.00,NNW,343,6.0,8.0,-999,-99.99,,,-99.99,,2013-10-16 14:32:00,
2013-10-16 08:02:00,-999.0,-99.9,-100.00,North,354,4.0,7.0,-999,-99.99,,,-99.99,,2013-10-16 15:02:00,
2013-10-16 08:11:00,47.0,-99.9,-100.00,NW,316,7.0,10.0,-999,-99.99,,,-99.99,,2013-10-16 15:11:00,
2013-10-16 08:22:00,-999.0,-99.9,-100.00,NW,326,7.0,9.0,-999,-99.99,,,-99.99,,2013-10-16 15:22:00,
2013-10-16 08:33:00,-999.0,-99.9,-100.00,NW,323,9.0,10.0,-999,-99.99,,,-99.99,,2013-10-16 15:33:00,
2013-10-16 08:44:00,-999.0,-99.9,-100.00,North,352,8.0,10.0,-999,-99.99,,,-99.99,,2013-10-16 15:44:00,
2013-10-16 09:03:00,-999.0,-99.9,-100.00,NNW,327,8.0,9.0,-999,-99.99,,,-99.99,,2013-10-16 16:03:00,
2013-10-16 09:23:00,-999.0,-99.9,-100.00,NNW,328,12.0,15.0,-999,-99.99,,,-99.99,,2013-10-16 16:23:00,
2013-10-16 09:33:00,-999.0,-99.9,-100.00,NW,326,11.0,15.0,-999,-99.99,,,-99.99,,2013-10-16 16:33:00,
2013-10-16 09:42:00,-999.0,-99.9,-100.00,NNW,333,10.0,13.0,-999,-99.99,,,-99.99,,2013-10-16 16:42:00,
2013-10-16 10:02:00,-999.0,-99.9,-100.00,NNW,328,7.0,11.0,-999,-99.99,,,-99.99,,2013-10-16 17:02:00,
2013-10-16 10:22:00,-999.0,-99.9,-100.00,NNW,327,7.0,9.0,-999,-99.99,,,-99.99,,2013-10-16 17:22:00,
2013-10-16 10:33:00,-999.0,-99.9,-100.00,NNW,327,8.0,11.0,-999,-99.99,,,-99.99,,2013-10-16 17:33:00,
2013-10-16 10:43:00,48.0,-99.9,-100.00,NNW,328,7.0,9.0,-999,-99.99,,,-99.99,,2013-10-16 17:43:00,
2013-10-16 10:52:00,48.0,-99.9,-100.00,NW,324,7.0,10.0,-999,-99.99,,,-99.99,,2013-10-16 17:52:00,
2013-10-16 11:02:00,-999.0,-99.9,-100.00,NNW,327,7.0,8.0,-999,-99.99,,,-99.99,,2013-10-16 18:02:00,
2013-10-16 11:12:00,-999.0,-99.9,-100.00,NW,308,5.0,8.0,-999,-99.99,,,-99.99,,2013-10-16 18:12:00,
2013-10-16 11:22:00,49.0,-99.9,-100.00,NW,312,5.0,7.0,-999,-99.99,,,-99.99,,2013-10-16 18:22:00,
2013-10-16 11:32:00,-999.0,-99.9,-100.00,NW,312,6.0,9.0,-999,-99.99,,,-99.99,,2013-10-16 18:32:00,
2013-10-16 12:02:00,-999.0,-99.9,-100.00,NW,315,9.0,10.0,-999,-99.99,,,-99.99,,2013-10-16 19:02:00,
2013-10-16 12:22:00,-999.0,-99.9,-100.00,WNW,303,7.0,9.0,-999,-99.99,,,-99.99,,2013-10-16 19:22:00,
2013-10-16 12:32:00,-999.0,-99.9,-100.00,NW,311,8.0,10.0,-999,-99.99,,,-99.99,,2013-10-16 19:32:00,
2013-10-16 12:52:00,49.0,-99.9,-100.00,WNW,303,6.0,8.0,-999,-99.99,,,-99.99,,2013-10-16 19:52:00,
2013-10-16 13:03:00,-999.0,-99.9,-100.00,WNW,289,5.0,6.0,-999,-99.99,,,-99.99,,2013-10-16 20:03:00,
2013-10-16 13:22:00,-999.0,-99.9,-100.00,WNW,292,5.0,6.0,-999,-99.99,,,-99.99,,2013-10-16 20:22:00,
2013-10-16 13:32:00,-999.0,-99.9,-100.00,WNW,299,5.0,6.0,-999,-99.99,,,-99.99,,2013-10-16 20:32:00,
2013-10-16 13:43:00,51.0,-99.9,-100.00,NW,308,7.0,9.0,-999,-99.99,,,-99.99,,2013-10-16 20:43:00,
2013-10-16 14:02:00,-999.0,-99.9,-100.00,WNW,297,7.0,9.0,-999,-99.99,,,-99.99,,2013-10-16 21:02:00,
2013-10-16 14:23:00,-999.0,-99.9,-100.00,WNW,284,11.0,11.0,-999,-99.99,,,-99.99,,2013-10-16 21:23:00,
2013-10-16 14:34:00,-999.0,-99.9,-100.00,WNW,289,12.0,13.0,-999,-99.99,,,-99.99,,2013-10-16 21:34:00,
2013-10-16 14:44:00,-999.0,-99.9,-100.00,WNW,289,12.0,13.0,-999,-99.99,,,-99.99,,2013-10-16 21:44:00,
2013-10-16 15:04:00,-999.0,-99.9,-100.00,WNW,293,10.0,12.0,-999,-99.99,,,-99.99,,2013-10-16 22:04:00,
2013-10-16 15:24:00,-999.0,-99.9,-100.00,WNW,296,10.0,11.0,-999,-99.99,,,-99.99,,2013-10-16 22:24:00,
2013-10-16 15:33:00,-999.0,-99.9,-100.00,WNW,299,10.0,11.0,-999,-99.99,,,-99.99,,2013-10-16 22:33:00,
2013-10-16 15:42:00,-999.0,-99.9,-100.00,WNW,298,11.0,13.0,-999,-99.99,,,-99.99,,2013-10-16 22:42:00,
2013-10-16 16:03:00,-999.0,-99.9,-100.00,WNW,296,10.0,12.0,-999,-99.99,,,-99.99,,2013-10-16 23:03:00,
2013-10-16 16:12:00,51.0,-99.9,-100.00,WNW,293,11.0,11.0,-999,-99.99,,,-99.99,,2013-10-16 23:12:00,
2013-10-16 16:22:00,-999.0,-99.9,-100.00,WNW,292,9.0,10.0,-999,-99.99,,,-99.99,,2013-10-16 23:22:00,
2013-10-16 16:34:00,-999.0,-99.9,-100.00,WNW,299,9.0,9.0,-999,-99.99,,,-99.99,,2013-10-16 23:34:00,
2013-10-16 16:42:00,-999.0,-99.9,-100.00,WNW,296,8.0,9.0,-999,-99.99,,,-99.99,,2013-10-16 23:42:00,
2013-10-16 16:53:00,51.0,-99.9,-100.00,WNW,295,8.0,9.0,-999,-99.99,,,-99.99,,2013-10-16 23:53:00,
2013-10-16 17:02:00,-999.0,-99.9,-100.00,WNW,293,8.0,8.0,-999,-99.99,,,-99.99,,2013-10-17 00:02:00,
2013-10-16 17:22:00,-999.0,-99.9,-100.00,WNW,297,6.0,7.0,-999,-99.99,,,-99.99,,2013-10-17 00:22:00,
2013-10-16 17:32:00,-999.0,-99.9,-100.00,NW,307,5.0,6.0,-999,-99.99,,,-99.99,,2013-10-17 00:32:00,
2013-10-16 18:02:00,-999.0,-99.9,-100.00,WNW,300,4.0,6.0,-999,-99.99,,,-99.99,,2013-10-17 01:02:00,
2013-10-16 18:23:00,-999.0,-99.9,-100.00,WNW,303,5.0,6.0,-999,-99.99,,,-99.99,,2013-10-17 01:23:00,
2013-10-16 18:32:00,-999.0,-99.9,-100.00,WNW,295,4.0,5.0,-999,-99.99,,,-99.99,,2013-10-17 01:32:00,
2013-10-16 19:03:00,-999.0,-99.9,-100.00,WNW,291,5.0,6.0,-999,-99.99,,,-99.99,,2013-10-17 02:03:00,
2013-10-16 19:22:00,-999.0,-99.9,-100.00,WNW,295,4.0,5.0,-999,-99.99,,,-99.99,,2013-10-17 02:22:00,
2013-10-16 19:32:00,-999.0,-99.9,-100.00,WNW,300,6.0,6.0,-999,-99.99,,,-99.99,,2013-10-17 02:32:00,
2013-10-16 19:42:00,-999.0,-99.9,-100.00,WNW,300,6.0,6.0,-999,-99.99,,,-99.99,,2013-10-17 02:42:00,
2013-10-16 20:02:00,-999.0,-99.9,-100.00,NW,312,4.0,5.0,-999,-99.99,,,-99.99,,2013-10-17 03:02:00,
2013-10-16 20:12:00,51.0,-99.9,-100.00,NW,319,4.0,6.0,-999,-99.99,,,-99.99,,2013-10-17 03:12:00,
2013-10-16 20:22:00,-999.0,-99.9,-100.00,NW,309,2.0,3.0,-999,-99.99,,,-99.99,,2013-10-17 03:22:00,
2013-10-16 20:34:00,-999.0,-99.9,-100.00,WNW,300,2.0,3.0,-999,-99.99,,,-99.99,,2013-10-17 03:34:00,
2013-10-16 20:54:00,51.0,-99.9,-100.00,West,273,4.0,4.0,-999,-99.99,,,-99.99,,2013-10-17 03:54:00,
2013-10-16 21:14:00,-999.0,-99.9,-100.00,WSW,243,4.0,4.0,-999,-99.99,,,-99.99,,2013-10-17 04:14:00,
2013-10-16 21:24:00,-999.0,-99.9,-100.00,WSW,248,4.0,5.0,-999,-99.99,,,-99.99,,2013-10-17 04:24:00,
2013-10-16 21:34:00,-999.0,-99.9,-100.00,WSW,245,4.0,4.0,-999,-99.99,,,-99.99,,2013-10-17 04:34:00,
2013-10-16 22:13:00,-999.0,-99.9,-100.00,South,178,1.0,2.0,-999,-99.99,,,-99.99,,2013-10-17 05:13:00,
2013-10-16 22:23:00,51.0,-99.9,-100.00,WSW,256,3.0,4.0,-999,-99.99,,,-99.99,,2013-10-17 05:23:00,
2013-10-16 22:34:00,-999.0,-99.9,-100.00,WSW,244,3.0,3.0,-999,-99.99,,,-99.99,,2013-10-17 05:34:00,
2013-10-16 23:02:00,-999.0,-99.9,-100.00,WSW,255,4.0,5.0,-999,-99.99,,,-99.99,,2013-10-17 06:02:00,
2013-10-16 23:22:00,-999.0,-99.9,-100.00,WSW,258,5.0,6.0,-999,-99.99,,,-99.99,,2013-10-17 06:22:00,
2013-10-16 23:33:00,-999.0,-99.9,-100.00,WSW,244,5.0,6.0,-999,-99.99,,,-99.99,,2013-10-17 06:33:00,